Moriarty, NM

2:02 AM MDT on October 17, 2017 (GMT -0600)
Moriarty

Weather History for K0E0 - April, 2014

Change the Weather History Date:

Tuesday, April 8, 2014

  Actual Average (KABQ) Record (KABQ)
Temperature  
Mean Temperature 43 °F -  
Max Temperature 69 °F 69 °F 85 °F (1989)
Min Temperature 17 °F 37 °F 20 °F (1983)
Degree Days  
Heating Degree Days 22    
Moisture  
Dew Point 15 °F    
Average Humidity 36    
Maximum Humidity 75    
Minimum Humidity 13    
Precipitation  
Precipitation 0.00 in - - ()
Sea Level Pressure  
Sea Level Pressure 30.30 in    
Wind  
Wind Speed 4 mph (WNW)    
Max Wind Speed 17 mph    
Max Gust Speed 25 mph    
Visibility 10 miles    
Events      
Averages and records for this station are not official NWS values.
T = Trace of Precipitation, MM = Missing Value Source: NWS Daily Summary

Daily Weather History Graph

Daily Weather History Graph

Search for Another Location

Airport or City:

Trip Planner

Search our weather history database for the weather conditions in past years. The results will help you decide how hot, cold, wet, or windy it might be!

Date:

Astronomy

Apr. 08, 2014 Rise Set
Actual Time 6:41 AM MDT 7:30 PM MDT
Civil Twilight 6:15 AM MDT 7:56 PM MDT
Nautical Twilight 5:45 AM MDT 8:27 PM MDT
Astronomical Twilight 5:13 AM MDT 8:58 PM MDT
Moon 1:39 PM MDT (4/8) 2:42 AM MDT (4/8)
Length of Visible Light 13h 41m
Length of Day
12h 49m
Waxing Gibbous, 63% of the Moon is Illuminated
Apr 8
Waxing Gibbous
Apr 15
Full
Apr 22
Last Quarter
Apr 29
New
May 6
First Quarter

Hourly Weather History & Observations

Time (MDT) Temp. Windchill Dew Point Humidity Pressure Visibility Wind Dir Wind Speed Gust Speed Precip Events Conditions
12:15 AM 36.1 °F - 19.4 °F 51% 30.29 in 10.0 mi Calm Calm - N/A   Clear
12:35 AM 34.9 °F - 19.4 °F 53% 30.30 in 10.0 mi Calm Calm - N/A   Clear
12:55 AM 34.7 °F - 18.7 °F 52% 30.31 in 10.0 mi Calm Calm - N/A   Clear
1:15 AM 29.8 °F 21.5 °F 16.0 °F 56% 30.31 in 10.0 mi WNW 9.2 mph - N/A   Clear
1:35 AM 29.1 °F - 16.0 °F 58% 30.31 in 10.0 mi Calm Calm - N/A   Clear
1:55 AM 28.0 °F 24.2 °F 15.4 °F 59% 30.31 in 10.0 mi WSW 3.5 mph - N/A   Clear
2:15 AM 28.4 °F 24.6 °F 15.4 °F 58% 30.32 in 10.0 mi West 3.5 mph - N/A   Clear
2:35 AM 27.0 °F - 14.2 °F 59% 30.32 in 10.0 mi Calm Calm - N/A   Clear
2:55 AM 28.9 °F - 16.9 °F 61% 30.31 in 10.0 mi Calm Calm - N/A   Clear
3:15 AM 27.0 °F - 14.9 °F 60% 30.31 in 10.0 mi Calm Calm - N/A   Clear
3:35 AM 26.2 °F - 14.0 °F 60% 30.31 in 10.0 mi Calm Calm - N/A   Clear
3:55 AM 23.7 °F - 12.7 °F 63% 30.31 in 10.0 mi Calm Calm - N/A   Clear
4:15 AM 21.9 °F 15.7 °F 11.8 °F 65% 30.31 in 10.0 mi NNW 4.6 mph - N/A   Clear
4:35 AM 20.3 °F 15.4 °F 10.6 °F 66% 30.31 in 10.0 mi North 3.5 mph - N/A   Clear
4:55 AM 21.2 °F 16.4 °F 11.5 °F 66% 30.31 in 10.0 mi NNE 3.5 mph - N/A   Clear
5:15 AM 21.0 °F 14.6 °F 12.0 °F 68% 30.31 in 10.0 mi NE 4.6 mph - N/A   Clear
5:35 AM 19.4 °F 11.5 °F 10.8 °F 69% 30.31 in 10.0 mi NE 5.8 mph - N/A   Clear
5:55 AM 19.6 °F 14.5 °F 11.5 °F 71% 30.31 in 10.0 mi NNE 3.5 mph - N/A   Clear
6:15 AM 19.0 °F 11.1 °F 12.4 °F 75% 30.31 in 10.0 mi NE 5.8 mph - N/A   Clear
6:35 AM 17.8 °F 12.5 °F 10.2 °F 72% 30.32 in 10.0 mi NNW 3.5 mph - N/A   Clear
6:55 AM 17.2 °F 10.2 °F 9.1 °F 71% 30.33 in 10.0 mi NNE 4.6 mph - N/A   Clear
7:15 AM 20.1 °F 13.6 °F 11.7 °F 70% 30.33 in 10.0 mi NNE 4.6 mph - N/A   Clear
7:35 AM 24.4 °F - 14.7 °F 67% 30.34 in 10.0 mi Calm Calm - N/A   Clear
7:55 AM 28.2 °F - 17.1 °F 63% 30.35 in 10.0 mi Calm Calm - N/A   Clear
8:15 AM 31.8 °F 28.5 °F 18.7 °F 58% 30.36 in 10.0 mi NNW 3.5 mph - N/A   Clear
8:35 AM 36.3 °F - 21.6 °F 55% 30.36 in 10.0 mi Calm Calm - N/A   Clear
8:55 AM 39.2 °F 37.0 °F 22.6 °F 52% 30.37 in 10.0 mi West 3.5 mph - N/A   Clear
9:15 AM 41.4 °F - 23.2 °F 48% 30.37 in 10.0 mi Calm Calm - N/A   Clear
9:35 AM 43.7 °F - 23.2 °F 44% 30.37 in 10.0 mi Calm Calm - N/A   Clear
9:55 AM 46.8 °F - 23.2 °F 40% 30.37 in 10.0 mi West 3.5 mph - N/A   Clear
10:15 AM 50.9 °F - 22.6 °F 33% 30.37 in 10.0 mi West 4.6 mph - N/A   Clear
10:35 AM 53.4 °F - 20.3 °F 27% 30.37 in 10.0 mi NW 3.5 mph - N/A   Clear
10:55 AM 57.0 °F - 18.3 °F 22% 30.36 in 10.0 mi West 3.5 mph - N/A   Clear
11:15 AM 58.6 °F - 19.4 °F 22% 30.35 in 10.0 mi West 3.5 mph - N/A   Clear
11:35 AM 60.3 °F - 20.1 °F 21% 30.35 in 10.0 mi NNW 4.6 mph - N/A   Clear
11:55 AM 61.0 °F - 19.4 °F 20% 30.34 in 10.0 mi WNW 9.2 mph 16.1 mph N/A   Clear
12:15 PM 63.3 °F - 18.0 °F 17% 30.33 in 10.0 mi North 9.2 mph 18.4 mph N/A   Clear
12:35 PM 63.5 °F - 17.4 °F 17% 30.32 in 10.0 mi NW 16.1 mph 19.6 mph N/A   Clear
12:55 PM 64.8 °F - 17.1 °F 16% 30.31 in 10.0 mi NNW 6.9 mph 18.4 mph N/A   Clear
1:15 PM 65.7 °F - 16.0 °F 15% 30.30 in 10.0 mi WNW 11.5 mph 18.4 mph N/A   Clear
1:35 PM 66.2 °F - 16.7 °F 15% 30.29 in 10.0 mi NNW 12.7 mph 23.0 mph N/A   Clear
1:55 PM 68.0 °F - 14.7 °F 13% 30.29 in 10.0 mi NNW 13.8 mph 20.7 mph N/A   Clear
2:15 PM 68.2 °F - 15.4 °F 13% 30.29 in 10.0 mi WNW 13.8 mph 25.3 mph N/A   Clear
2:35 PM 68.0 °F - 15.3 °F 13% 30.28 in 10.0 mi NW 17.3 mph - N/A   Clear
2:55 PM 67.8 °F - 14.9 °F 13% 30.27 in 10.0 mi NW 13.8 mph 24.2 mph N/A   Clear
3:15 PM 68.0 °F - 15.6 °F 13% 30.27 in 10.0 mi NW 15.0 mph 21.9 mph N/A   Clear
3:35 PM 69.1 °F - 16.7 °F 13% 30.26 in 10.0 mi NW 11.5 mph 20.7 mph N/A   Clear
3:55 PM 69.3 °F - 17.8 °F 14% 30.26 in 10.0 mi NW 13.8 mph 18.4 mph N/A   Clear
4:15 PM 68.9 °F - 16.5 °F 13% 30.25 in 10.0 mi North 6.9 mph 19.6 mph N/A   Clear
4:35 PM 69.3 °F - 17.6 °F 14% 30.25 in 10.0 mi West 6.9 mph 23.0 mph N/A   Clear
4:55 PM 69.3 °F - 16.5 °F 13% 30.25 in 10.0 mi WNW 10.4 mph 17.3 mph N/A   Clear
5:15 PM 68.5 °F - 17.2 °F 14% 30.25 in 10.0 mi West 8.1 mph 20.7 mph N/A   Clear
5:35 PM 68.2 °F - 16.5 °F 14% 30.25 in 10.0 mi WNW 13.8 mph 23.0 mph N/A   Clear
5:55 PM 68.0 °F - 16.9 °F 14% 30.25 in 10.0 mi West 11.5 mph 21.9 mph N/A   Clear
6:15 PM 67.1 °F - 16.0 °F 14% 30.25 in 10.0 mi West 12.7 mph 17.3 mph N/A   Clear
6:35 PM 66.4 °F - 16.0 °F 14% 30.25 in 10.0 mi West 8.1 mph 11.5 mph N/A   Clear
6:55 PM 65.5 °F - 15.8 °F 15% 30.24 in 10.0 mi West 8.1 mph - N/A   Clear
7:15 PM 63.3 °F - 14.9 °F 15% 30.25 in 10.0 mi West 5.8 mph - N/A   Clear
7:35 PM 59.9 °F - 14.2 °F 17% 30.25 in 10.0 mi West 3.5 mph - N/A   Clear
7:55 PM 57.2 °F - 12.0 °F 17% 30.26 in 10.0 mi NW 4.6 mph - N/A   Clear
8:15 PM 53.8 °F - 10.4 °F 18% 30.26 in 10.0 mi WNW 8.1 mph - N/A   Clear
8:35 PM 55.2 °F - 10.4 °F 17% 30.27 in 10.0 mi West 6.9 mph - N/A   Clear
8:55 PM 55.2 °F - 10.2 °F 17% 30.28 in 10.0 mi WSW 4.6 mph - N/A   Clear
9:15 PM 46.4 °F 42.4 °F 9.7 °F 23% 30.29 in 10.0 mi SW 8.1 mph - N/A   Clear
9:35 PM 46.6 °F - 10.8 °F 23% 30.29 in 10.0 mi WSW 6.9 mph - N/A   Clear
9:55 PM 44.8 °F 41.0 °F 10.2 °F 25% 30.29 in 10.0 mi WSW 6.9 mph - N/A   Clear
10:15 PM 45.1 °F 43.7 °F 10.0 °F 24% 30.29 in 10.0 mi SW 3.5 mph - N/A   Clear
10:35 PM 40.8 °F 35.6 °F 10.4 °F 29% 30.29 in 10.0 mi SSW 8.1 mph - N/A   Clear
10:55 PM 39.7 °F 36.5 °F 10.4 °F 30% 30.29 in 10.0 mi South 4.6 mph - N/A   Clear
11:15 PM 39.6 °F 34.0 °F 11.7 °F 32% 30.29 in 10.0 mi South 8.1 mph - N/A   Clear
11:35 PM 40.5 °F 36.5 °F 11.8 °F 31% 30.29 in 10.0 mi South 5.8 mph - N/A   Clear
11:55 PM 41.0 °F 37.1 °F 11.5 °F 30% 30.29 in 10.0 mi South 5.8 mph - N/A   Clear